Time,TemperatureF,DewpointF,PressureIn,WindDirection,WindDirectionDegrees,WindSpeedMPH,WindSpeedGustMPH,Humidity,HourlyPrecipIn,Conditions,Clouds,dailyrainin,SoftwareType,DateUTC
2013-02-27 20:22:00,77.0,73.0,29.93,NNE,31,5.0,9.0,87,0.00,,,0.00,,2013-02-28 01:22:00,
2013-02-27 20:32:00,76.0,72.0,29.93,NNE,21,8.0,13.0,88,0.00,,,0.00,,2013-02-28 01:32:00,
2013-02-27 20:42:00,76.0,72.0,29.93,NNE,21,8.0,13.0,88,0.00,,,0.00,,2013-02-28 01:42:00,
2013-02-27 20:52:00,75.0,72.0,29.94,NNE,13,13.0,16.0,89,0.00,,,0.00,,2013-02-28 01:52:00,
2013-02-27 21:01:00,75.0,72.0,29.94,NNE,24,13.0,19.0,89,0.00,,,0.00,,2013-02-28 02:01:00,
2013-02-27 21:11:00,75.0,72.0,29.94,NNE,24,13.0,19.0,89,0.00,,,0.00,,2013-02-28 02:11:00,
2013-02-27 21:22:00,74.0,71.0,29.95,NNE,19,11.0,15.0,90,0.00,,,0.00,,2013-02-28 02:22:00,
2013-02-27 21:32:00,74.0,71.0,29.95,NNW,337,10.0,15.0,90,0.00,,,0.00,,2013-02-28 02:32:00,
2013-02-27 21:41:00,74.0,71.0,29.95,NNW,337,10.0,15.0,90,0.00,,,0.00,,2013-02-28 02:41:00,
2013-02-27 21:52:00,74.0,71.0,29.95,NNW,337,10.0,15.0,90,0.00,,,0.00,,2013-02-28 02:52:00,
2013-02-27 22:01:00,74.0,71.0,29.95,NE,44,8.0,12.0,91,0.00,,,0.00,,2013-02-28 03:01:00,
2013-02-27 22:11:00,74.0,71.0,29.95,NE,44,8.0,12.0,91,0.00,,,0.00,,2013-02-28 03:11:00,
2013-02-27 22:21:00,74.0,71.0,29.95,ENE,78,4.0,10.0,91,0.00,,,0.00,,2013-02-28 03:21:00,
2013-02-27 22:32:00,74.0,71.0,29.95,NNE,17,2.0,7.0,91,0.00,,,0.00,,2013-02-28 03:32:00,
2013-02-27 22:42:00,74.0,71.0,29.95,NNE,17,2.0,7.0,91,0.00,,,0.00,,2013-02-28 03:42:00,
2013-02-27 22:52:00,74.0,71.0,29.95,NNE,14,3.0,6.0,90,0.00,,,0.00,,2013-02-28 03:52:00,
2013-02-27 23:02:00,74.0,71.0,29.95,North,2,1.0,3.0,90,0.00,,,0.00,,2013-02-28 04:02:00,
2013-02-27 23:11:00,74.0,71.0,29.95,North,2,1.0,3.0,90,0.00,,,0.00,,2013-02-28 04:11:00,
2013-02-27 23:22:00,74.0,71.0,29.94,SW,219,2.0,4.0,89,0.00,,,0.00,,2013-02-28 04:22:00,
2013-02-27 23:32:00,74.0,71.0,29.93,WSW,255,0.0,4.0,89,0.00,,,0.00,,2013-02-28 04:32:00,
2013-02-27 23:42:00,74.0,71.0,29.93,WSW,255,0.0,4.0,89,0.00,,,0.00,,2013-02-28 04:42:00,
2013-02-27 23:52:00,74.0,70.0,29.94,WNW,290,2.0,6.0,88,0.00,,,0.00,,2013-02-28 04:52:00,